Regional Weather Roundup
Issued by NWS State College, PA

Home | Current Version | Previous Version | Text Only | Print | Product List | Glossary Off
Versions: 1 2 3 4 5 6 7 8 9 10 11 12 13 14 15 16 17 18 19 20 21 22 23 24 25 26 27 28 29 30 31 32 33 34 35 36 37 38 39 40 41 42 43 44 45 46 47 48 49 50

000
ASUS41 KCTP 190203
RWRCTP

REGIONAL WEATHER ROUNDUP
NATIONAL WEATHER SERVICE STATE COLLEGE PA
900 PM EST THU DEC 18 2014

Note: "fair" indicates few or no clouds below 12,000 feet with no
significant weather and/or obstructions to visibility.

* = STATION THAT DOES NOT REPORT PRECIPITATION /E.G. RAIN...SNOW...ETC/
    THUNDER OR FOG.

PAZ002>004-007>009-013>016-020>023-029>032-190300-
WESTERN PENNSYLVANIA

CITY           SKY/WX    TMP DP  RH WIND       PRES   REMARKS
ERIE           CLOUDY    32  27  81 NW8       30.12F
MEADVILLE      CLOUDY    27  25  92 W6        30.09F FOG
FRANKLIN*      CLOUDY    27  23  86 W8        30.10F
NEW CASTLE       N/A     27  25  92 SW7       30.15F FOG
BEAVER COUNTY  CLOUDY    28  23  80 W5        30.13F
BUTLER*        CLOUDY    27  23  86 W7        30.14F
PITTSBURGH INT CLOUDY    28  22  78 W8        30.14F
PITTSBURGH     CLOUDY    27  19  72 W7        30.13F
INDIANA*       CLOUDY    28  25  86 W6        30.14S
LATROBE        NOT AVBL
WASHINGTON CO* NOT AVBL
$$

PAZ004>006-010>012-017>019-024>028-033>037-041-042-045-046-049>053-190300-
CENTRAL PENNSYLVANIA

CITY           SKY/WX    TMP DP  RH WIND       PRES   REMARKS
BRADFORD       CLOUDY    26  23  88 W13       30.00F FOG     WCI  15
DUBOIS         CLOUDY    26  24  92 W9        30.04F
CLEARFIELD     CLOUDY    28  23  81 W8        30.06F
JOHNSTOWN      CLOUDY    23  19  85 NW14G25   30.03F WCI  11
ALTOONA        CLOUDY    28  22  78 NW14      30.07S
STATE COLLEGE  CLOUDY    30  23  74 NW9G21    30.07S
WILLIAMSPORT   CLOUDY    36  23  59 W12       30.04F
SELINSGROVE    CLOUDY    35  25  66 W6        30.08R
FT INDIANTOWN  CLOUDY    35  24  66 W5        30.06F
CAPITAL CITY   CLOUDY    35  24  64 W9        30.09S
HARRISBURG     CLOUDY    35  24  64 NW12      30.08S
YORK           CLOUDY    35  24  64 NW6       30.08S
$$

PAZ038>040-043-044-047-048-054-055-060>062-067>071-190300-
EASTERN PENNSYLVANIA

CITY           SKY/WX    TMP DP  RH WIND       PRES   REMARKS
SCRANTON       CLOUDY    35  24  64 NW13      29.99S
MOUNT POCONO   CLOUDY    30  23  75 NW15G25   29.91S
ALLENTOWN      CLOUDY    37  25  61 W7        30.03R
QUAKERTOWN*    CLOUDY    36  27  69 W6        30.02S
READING        CLOUDY    36  25  64 W13       30.05F
LANCASTER      CLOUDY    35  24  64 NW12      30.06F
COATESVILLE    CLOUDY    36  27  69 NW14      30.05F
POTTSTOWN      CLOUDY    35  26  69 W7        30.05R
BLUE BELL      CLOUDY    36  28  75 W3        30.03S
DOYLESTOWN     CLOUDY    34  25  69 W5        30.02R
WILLOW GROVE   NOT AVBL
NORTH PHILA    CLOUDY    37  24  59 W12       30.06R
PHILADELPHIA   CLOUDY    37  25  61 W14       30.06F
$$


USA.gov is the U.S. government's official web portal to all federal, state and local government web resources and services.